This is the latest recevied weather packets stored in our database for station/object WK7G. If no packets are shown the sender has not sent any weather packets the latest 10 day(s).
| Time | Temp. | Humidity | Pressure | Rain* | Wind** | Luminosity | Snow |
|---|---|---|---|---|---|---|---|
| 1777985583 | 1.67° C | 78% | 1004.6 hPa | 0 mm | - | 30 W/m² | - |
| 1777985280 | 1.67° C | 76% | 1004.9 hPa | 0 mm | - | 24 W/m² | - |
| 1777984976 | 1.11° C | 74% | 1004.9 hPa | 0 mm | - | 20 W/m² | - |
| 1777984672 | 1.67° C | 72% | 1004.6 hPa | 0 mm | - | 18 W/m² | - |
| 1777984369 | 2.22° C | 69% | 1004.6 hPa | 0 mm | - | 14 W/m² | - |
| 1777984065 | 2.78° C | 69% | 1005 hPa | 0 mm | - | 10 W/m² | - |
| 1777983763 | 3.33° C | 65% | 1004.6 hPa | 0 mm | - | 6 W/m² | - |
| 1777983459 | 3.33° C | 65% | 1004.5 hPa | 0 mm | - | 4 W/m² | - |
| 1777983156 | 3.89° C | 63% | 1004.5 hPa | 0 mm | - | 1 W/m² | - |
| 1777982852 | 3.89° C | 66% | 1004.5 hPa | 0 mm | - | 0 W/m² | - |
| 1777982548 | 3.89° C | 66% | 1004.4 hPa | 0 mm | - | 0 W/m² | - |
| 1777982247 | 4.44° C | 63% | 1004.6 hPa | 0 mm | - | 0 W/m² | - |
| 1777981945 | 4.44° C | 63% | 1004.6 hPa | 0 mm | - | 0 W/m² | - |
| 1777981642 | 4.44° C | 63% | 1004.6 hPa | 0 mm | - | 0 W/m² | - |
| 1777981338 | 5° C | 61% | 1004.3 hPa | 0 mm | - | 0 W/m² | - |
| 1777981035 | 5.56° C | 61% | 1004.6 hPa | 0 mm | - | 0 W/m² | - |
| 1777980732 | 5.56° C | 61% | 1004.6 hPa | 0 mm | - | 0 W/m² | - |
| 1777980428 | 5.56° C | 59% | 1004.8 hPa | 0 mm | - | 0 W/m² | - |
| 1777980126 | 5.56° C | 66% | 1004.9 hPa | 0 mm | - | 0 W/m² | - |
| 1777979825 | 5.56° C | 68% | 1004.6 hPa | 0 mm | - | 0 W/m² | - |
| 1777979521 | 5.56° C | 68% | 1004.5 hPa | 0 mm | - | 0 W/m² | - |
| 1777979218 | 5.56° C | 72% | 1004.4 hPa | 0 mm | - | 0 W/m² | - |
| 1777978915 | 5° C | 72% | 1004.9 hPa | 0 mm | - | 0 W/m² | - |
| 1777978612 | 5° C | 71% | 1004.9 hPa | 0 mm | - | 0 W/m² | - |
| 1777978307 | 5° C | 70% | 1004.6 hPa | 0 mm | - | 0 W/m² | - |
* Rain latest hour (hover to see other rain measurements)
** Current wind speed in m/s (hover to see current wind gust speed)